When you browse on this site, cookies collect data to enhance your experience and personalize the content and advertising you see.
Visit our Privacy Policy to learn more. By continuing to use the site, you agree to this use of cookies and data.
  • în România
  • Lista ţărilor
  • Pe 7 zile
  • Temperatura apei
  • Hartă satelitară
  • Meteo pe hartă
  • Widget-uri
  • user-avatar
    Intrare

    Meteo pe oră la Peshawar

    Astăzi, 25 Mai, Sâmbătă

    Timp Temperatura Precipitaţii Vânt Presiune Umiditate
    00:00 +33°C° 0 mm 5 m/s 750 mmHg 55%
    01:00 +33°C° 0 mm 5 m/s 750 mmHg 55%
    02:00 +33°C° 0 mm 5 m/s 750 mmHg 57%
    03:00 +33°C° 0 mm 5 m/s 750 mmHg 59%
    04:00 +32°C° 0 mm 5 m/s 750 mmHg 64%
    05:00 +33°C° 0 mm 5 m/s 750 mmHg 61%
    06:00 +33°C° 0 mm 5 m/s 750 mmHg 59%
    07:00 +34°C° 0 mm 5 m/s 750 mmHg 57%
    08:00 +36°C° 0 mm 5 m/s 750 mmHg 47%
    09:00 +39°C° 0 mm 5 m/s 750 mmHg 37%
    10:00 +41°C° 0 mm 6 m/s 750 mmHg 30%
    11:00 +42°C° 0 mm 6 m/s 750 mmHg 27%
    12:00 +44°C° 0 mm 6 m/s 750 mmHg 24%
    13:00 +45°C° 0 mm 6 m/s 749 mmHg 21%
    14:00 +44°C° 0 mm 7 m/s 749 mmHg 22%
    15:00 +44°C° 0 mm 7 m/s 748 mmHg 24%
    16:00 +43°C° 0 mm 8 m/s 748 mmHg 25%
    17:00 +40°C° 0 mm 7 m/s 748 mmHg 29%
    18:00 +39°C° 0 mm 7 m/s 748 mmHg 33%
    19:00 +38°C° 0 mm 7 m/s 748 mmHg 37%
    20:00 +36°C° 0 mm 7 m/s 748 mmHg 39%
    21:00 +36°C° 0 mm 7 m/s 748 mmHg 41%
    22:00 +35°C° 0 mm 7 m/s 749 mmHg 43%
    23:00 +35°C° 0 mm 6 m/s 748 mmHg 47%

    Mâine, 26 Mai, Duminică

    Timp Temperatura Precipitaţii Vânt Presiune Umiditate
    00:00 +34°C° 0 mm 6 m/s 748 mmHg 51%
    01:00 +34°C° 0 mm 6 m/s 748 mmHg 55%
    02:00 +33°C° 0 mm 5 m/s 748 mmHg 59%
    03:00 +33°C° 0 mm 5 m/s 748 mmHg 63%
    04:00 +32°C° 0 mm 5 m/s 747 mmHg 67%
    05:00 +33°C° 0 mm 5 m/s 748 mmHg 63%
    06:00 +34°C° 0 mm 4 m/s 748 mmHg 58%
    07:00 +35°C° 0 mm 4 m/s 748 mmHg 53%
    08:00 +37°C° 0 mm 4 m/s 748 mmHg 42%
    09:00 +41°C° 0 mm 4 m/s 748 mmHg 31%
    10:00 +43°C° 0 mm 5 m/s 748 mmHg 19%
    11:00 +45°C° 0 mm 6 m/s 748 mmHg 17%
    12:00 +46°C° 0 mm 7 m/s 748 mmHg 16%
    13:00 +48°C° 0 mm 8 m/s 747 mmHg 14%
    14:00 +46°C° 0 mm 8 m/s 747 mmHg 16%
    15:00 +45°C° 0 mm 8 m/s 746 mmHg 18%
    16:00 +44°C° 0 mm 9 m/s 746 mmHg 20%
    17:00 +43°C° 0 mm 8 m/s 746 mmHg 27%
    18:00 +40°C° 0 mm 8 m/s 747 mmHg 33%
    19:00 +38°C° 0 mm 8 m/s 747 mmHg 39%
    20:00 +38°C° 0 mm 8 m/s 747 mmHg 41%
    21:00 +37°C° 0 mm 8 m/s 748 mmHg 42%
    22:00 +36°C° 0 mm 7 m/s 748 mmHg 43%
    23:00 +35°C° 0 mm 7 m/s 748 mmHg 47%

    Poimâine, 27 Mai, Luni

    Timp Temperatura Precipitaţii Vânt Presiune Umiditate
    00:00 +35°C° 0 mm 7 m/s 748 mmHg 50%
    01:00 +34°C° 0 mm 7 m/s 747 mmHg 53%
    02:00 +34°C° 0 mm 7 m/s 747 mmHg 56%
    03:00 +33°C° 0 mm 6 m/s 747 mmHg 60%
    04:00 +33°C° 0 mm 6 m/s 747 mmHg 63%
    05:00 +34°C° 0 mm 6 m/s 747 mmHg 60%
    06:00 +34°C° 0 mm 6 m/s 748 mmHg 57%
    07:00 +35°C° 0 mm 6 m/s 748 mmHg 53%
    08:00 +38°C° 0 mm 6 m/s 748 mmHg 44%
    09:00 +40°C° 0 mm 7 m/s 748 mmHg 35%
    10:00 +44°C° 0 mm 7 m/s 748 mmHg 27%
    11:00 +45°C° 0 mm 8 m/s 748 mmHg 23%
    12:00 +46°C° 0 mm 8 m/s 748 mmHg 20%
    13:00 +48°C° 0 mm 8 m/s 747 mmHg 16%
    14:00 +45°C° 0 mm 9 m/s 747 mmHg 22%
    15:00 +43°C° 0 mm 9 m/s 747 mmHg 28%
    16:00 +42°C° 0 mm 9 m/s 746 mmHg 34%
    17:00 +39°C° 0 mm 8 m/s 747 mmHg 38%
    18:00 +38°C° 0 mm 8 m/s 747 mmHg 42%
    19:00 +37°C° 0 mm 8 m/s 748 mmHg 46%
    20:00 +35°C° 0 mm 8 m/s 748 mmHg 48%
    21:00 +35°C° 0 mm 8 m/s 748 mmHg 50%
    22:00 +35°C° 0 mm 8 m/s 749 mmHg 52%
    23:00 +34°C° 0 mm 8 m/s 748 mmHg 55%

    28 Mai, Marţi

    Timp Temperatura Precipitaţii Vânt Presiune Umiditate
    00:00 +34°C° 0 mm 8 m/s 748 mmHg 58%
    01:00 +33°C° 0 mm 8 m/s 748 mmHg 61%
    02:00 +33°C° 0 mm 8 m/s 748 mmHg 63%
    03:00 +33°C° 0 mm 7 m/s 748 mmHg 64%
    04:00 +32°C° 0 mm 7 m/s 747 mmHg 66%
    05:00 +33°C° 0 mm 7 m/s 748 mmHg 64%
    06:00 +33°C° 0 mm 8 m/s 748 mmHg 62%
    07:00 +34°C° 0 mm 8 m/s 749 mmHg 60%
    08:00 +37°C° 0 mm 8 m/s 749 mmHg 54%
    09:00 +38°C° 0 mm 8 m/s 749 mmHg 47%
    10:00 +40°C° 0 mm 9 m/s 749 mmHg 41%
    11:00 +42°C° 0 mm 9 m/s 749 mmHg 38%
    12:00 +42°C° 0 mm 10 m/s 748 mmHg 36%
    13:00 +43°C° 0 mm 10 m/s 748 mmHg 33%
    14:00 +42°C° 0 mm 10 m/s 747 mmHg 35%
    15:00 +40°C° 0 mm 10 m/s 747 mmHg 37%
    16:00 +40°C° 0 mm 9 m/s 747 mmHg 38%
    17:00 +38°C° 0 mm 9 m/s 747 mmHg 44%
    18:00 +37°C° 0 mm 8 m/s 748 mmHg 50%
    19:00 +35°C° 0 mm 8 m/s 748 mmHg 56%
    20:00 +34°C° 0 mm 8 m/s 748 mmHg 58%
    21:00 +34°C° 0 mm 8 m/s 749 mmHg 60%
    22:00 +33°C° 0 mm 8 m/s 749 mmHg 63%
    23:00 +33°C° 0 mm 8 m/s 749 mmHg 64%

    29 Mai, Miercuri

    Timp Temperatura Precipitaţii Vânt Presiune Umiditate
    00:00 +33°C° 0 mm 8 m/s 748 mmHg 66%
    01:00 +32°C° 0 mm 8 m/s 748 mmHg 68%
    02:00 +32°C° 0 mm 8 m/s 748 mmHg 69%
    03:00 +32°C° 0 mm 7 m/s 748 mmHg 70%
    04:00 +32°C° 0 mm 7 m/s 748 mmHg 71%
    05:00 +33°C° 0 mm 7 m/s 748 mmHg 69%
    06:00 +33°C° 0 mm 8 m/s 748 mmHg 66%
    07:00 +34°C° 0 mm 8 m/s 749 mmHg 64%
    08:00 +35°C° 0 mm 9 m/s 749 mmHg 57%
    09:00 +38°C° 0 mm 9 m/s 749 mmHg 51%
    10:00 +39°C° 0 mm 10 m/s 749 mmHg 44%
    11:00 +40°C° 0 mm 10 m/s 748 mmHg 43%
    12:00 +40°C° 0 mm 10 m/s 747 mmHg 42%
    13:00 +40°C° 0 mm 10 m/s 747 mmHg 41%
    14:00 +40°C° 0 mm 10 m/s 747 mmHg 43%
    15:00 +39°C° 0 mm 10 m/s 746 mmHg 45%
    16:00 +39°C° 0 mm 10 m/s 746 mmHg 46%
    17:00 +37°C° 0 mm 9 m/s 746 mmHg 51%
    18:00 +35°C° 0 mm 9 m/s 747 mmHg 55%
    19:00 +34°C° 0 mm 8 m/s 747 mmHg 59%
    20:00 +34°C° 0 mm 8 m/s 747 mmHg 61%
    21:00 +34°C° 0 mm 7 m/s 748 mmHg 63%
    22:00 +33°C° 0 mm 7 m/s 748 mmHg 65%
    23:00 +33°C° 0 mm 7 m/s 747 mmHg 67%

    30 Mai, Joi

    Timp Temperatura Precipitaţii Vânt Presiune Umiditate
    00:00 +33°C° 0 mm 7 m/s 747 mmHg 68%
    01:00 +33°C° 0 mm 7 m/s 746 mmHg 69%
    02:00 +32°C° 0 mm 7 m/s 746 mmHg 70%
    03:00 +32°C° 0 mm 6 m/s 746 mmHg 70%
    04:00 +32°C° 0 mm 6 m/s 746 mmHg 71%
    05:00 +33°C° 0 mm 7 m/s 747 mmHg 67%
    06:00 +34°C° 0 mm 7 m/s 747 mmHg 64%
    07:00 +34°C° 0 mm 8 m/s 747 mmHg 60%
    08:00 +37°C° 0 mm 8 m/s 747 mmHg 53%
    09:00 +39°C° 0 mm 8 m/s 747 mmHg 47%
    10:00 +40°C° 0 mm 8 m/s 747 mmHg 40%
    11:00 +42°C° 0 mm 9 m/s 747 mmHg 38%
    12:00 +43°C° 0 mm 9 m/s 746 mmHg 35%
    13:00 +44°C° 0 mm 9 m/s 746 mmHg 32%
    14:00 +43°C° 0 mm 9 m/s 745 mmHg 33%
    15:00 +43°C° 0 mm 9 m/s 745 mmHg 33%
    16:00 +42°C° 0 mm 9 m/s 745 mmHg 34%
    17:00 +40°C° 0 mm 9 m/s 745 mmHg 38%
    18:00 +38°C° 0 mm 8 m/s 745 mmHg 42%
    19:00 +37°C° 0 mm 8 m/s 746 mmHg 47%
    20:00 +37°C° 0 mm 8 m/s 746 mmHg 47%
    21:00 +37°C° 0 mm 8 m/s 746 mmHg 48%
    22:00 +35°C° 0 mm 8 m/s 746 mmHg 49%
    23:00 +35°C° 0 mm 7 m/s 746 mmHg 51%
    Arată mai mult